Columbus AFB, MS

2:09 PM CST on February 21, 2018 (GMT -0600)
Columbus Air Force Base

Weather History for KCBM - October, 2012

Change the Weather History Date:

Saturday, October 6, 2012

  Actual Average Record
Temperature  
Mean Temperature 58 °F -  
Max Temperature 64 °F 76 °F 91 °F (1997)
Min Temperature 51 °F 54 °F 39 °F (2010)
Degree Days  
Heating Degree Days 8    
Growing Degree Days 8 (Base 50)    
Moisture  
Dew Point 53 °F    
Average Humidity 92    
Maximum Humidity 100    
Minimum Humidity 73    
Precipitation  
Precipitation 0.72 in - - ()
Sea Level Pressure  
Sea Level Pressure 30.09 in    
Wind  
Wind Speed 7 mph (North)    
Max Wind Speed 16 mph    
Max Gust Speed 24 mph    
Visibility 8 miles    
Events Fog , Rain , Thunderstorm    
Averages and records for this station are not official NWS values.
T = Trace of Precipitation, MM = Missing Value Source: NWS Daily Summary

Daily Weather History Graph

Daily Weather History Graph

Search for Another Location

Airport or City:

Trip Planner

Search our weather history database for the weather conditions in past years. The results will help you decide how hot, cold, wet, or windy it might be!

Date:

Astronomy

Oct. 06, 2012 Rise Set
Actual Time 6:52 AM CDT 6:30 PM CDT
Civil Twilight 6:27 AM CDT 6:55 PM CDT
Nautical Twilight 5:58 AM CDT 7:24 PM CDT
Astronomical Twilight 5:29 AM CDT 7:53 PM CDT
Moon 10:58 PM CDT (10/6) 12:33 PM CDT (10/6)
Length of Visible Light 12h 28m
Length of Day
11h 38m
Waning Gibbous, 65% of the Moon is Illuminated
Oct 6
Waning Gibbous
Oct 8
Last Quarter
Oct 15
New
Oct 21
First Quarter
Oct 29
Full

Hourly Weather History & Observations

Time (CDT) Temp. Dew Point Humidity Pressure Visibility Wind Dir Wind Speed Gust Speed Precip Events Conditions
12:55 AM 61.3 °F 59.9 °F 95% 30.01 in 10.0 mi Calm Calm - N/A   Clear
1:55 AM 60.8 °F 60.3 °F 98% 30.00 in 10.0 mi Calm Calm - N/A   Partly Cloudy
2:30 AM 60.8 °F 60.8 °F 100% 30.01 in 10.0 mi SSE 3.5 mph - N/A   Mostly Cloudy
2:55 AM 61.9 °F 61.2 °F 97% 30.01 in 10.0 mi Calm Calm - N/A   Mostly Cloudy
3:03 AM 62.6 °F 60.8 °F 94% 30.01 in 10.0 mi NNW 3.5 mph - N/A   Mostly Cloudy
3:49 AM 62.6 °F 62.6 °F 100% 30.02 in 10.0 mi North 10.4 mph - N/A   Scattered Clouds
3:51 AM 62.6 °F 62.6 °F 100% 30.02 in 10.0 mi North 11.5 mph - N/A   Mostly Cloudy
3:53 AM 62.6 °F 62.6 °F 100% 30.02 in 10.0 mi North 12.7 mph - N/A   Mostly Cloudy
3:55 AM 63.7 °F 62.8 °F 97% 30.02 in 10.0 mi North 16.1 mph - N/A   Mostly Cloudy
4:01 AM 64.4 °F 62.6 °F 94% 30.02 in 10.0 mi NNW 16.1 mph 24.2 mph N/A   Mostly Cloudy
4:09 AM 62.6 °F 60.8 °F 94% 30.02 in 10.0 mi North 16.1 mph - N/A   Overcast
4:23 AM 62.6 °F 60.8 °F 94% 30.04 in 10.0 mi NNW 12.7 mph - N/A   Overcast
4:55 AM 59.0 °F 57.4 °F 94% 30.05 in 10.0 mi North 12.7 mph - N/A   Overcast
5:28 AM 57.2 °F 55.4 °F 94% 30.06 in 10.0 mi North 9.2 mph - N/A   Overcast
5:41 AM 57.2 °F 53.6 °F 88% 30.07 in 10.0 mi North 10.4 mph - N/A   Overcast
5:55 AM 55.9 °F 53.1 °F 90% 30.09 in 10.0 mi NNW 12.7 mph - N/A   Overcast
6:00 AM 55.4 °F 53.6 °F 94% 30.08 in 10.0 mi North 10.4 mph - N/A Rain Light Rain
6:11 AM 55.4 °F 51.8 °F 88% 30.07 in 10.0 mi North 11.5 mph - N/A   Overcast
6:55 AM 54.7 °F 51.8 °F 90% 30.09 in 10.0 mi North 8.1 mph - 0.00 in   Overcast
7:23 AM 55.4 °F 51.8 °F 88% 30.09 in 10.0 mi North 12.7 mph - N/A   Light Drizzle
7:32 AM 53.6 °F 51.8 °F 94% 30.10 in 10.0 mi North 11.5 mph - N/A   Overcast
7:55 AM 54.0 °F 50.9 °F 89% 30.10 in 10.0 mi North 9.2 mph - 0.00 in   Overcast
9:55 AM 54.3 °F 49.6 °F 84% 30.14 in 10.0 mi North 13.8 mph - N/A   Overcast
10:04 AM 53.6 °F 50.0 °F 88% 30.14 in 10.0 mi NNE 9.2 mph - N/A   Overcast
10:25 AM 53.6 °F 48.2 °F 82% 30.14 in 10.0 mi North 11.5 mph - N/A   Overcast
10:55 AM 54.5 °F 48.6 °F 80% 30.14 in 10.0 mi North 12.7 mph - N/A   Overcast
11:55 AM 55.0 °F 48.2 °F 78% 30.12 in 10.0 mi North 9.2 mph - N/A   Overcast
12:55 PM 55.8 °F 48.6 °F 77% 30.11 in 10.0 mi North 9.2 mph - N/A   Overcast
1:55 PM 57.6 °F 49.1 °F 73% 30.09 in 10.0 mi North 6.9 mph - N/A   Overcast
1:58 PM 57.2 °F 50.0 °F 77% 30.09 in 10.0 mi North 5.8 mph - N/A   Overcast
2:30 PM 57.2 °F 50.0 °F 77% 30.07 in 10.0 mi NNE 5.8 mph - N/A Rain Light Rain
2:39 PM 57.2 °F 50.0 °F 77% 30.07 in 10.0 mi NNE 6.9 mph - N/A   Overcast
2:55 PM 58.1 °F 50.2 °F 75% 30.07 in 10.0 mi NNW 9.2 mph - 0.00 in   Overcast
3:55 PM 57.9 °F 50.0 °F 75% 30.07 in 10.0 mi North 10.4 mph - N/A   Overcast
4:52 PM 57.2 °F 50.0 °F 77% 30.08 in 10.0 mi North 10.4 mph - N/A Rain Light Rain
4:55 PM 57.6 °F 50.7 °F 78% 30.06 in 10.0 mi North 11.5 mph - 0.00 in Rain Light Rain
5:11 PM 57.2 °F 50.0 °F 77% 30.06 in 10.0 mi North 4.6 mph - N/A Thunderstorm Overcast
5:16 PM 57.2 °F 50.0 °F 77% 30.06 in 10.0 mi North 6.9 mph - N/A Thunderstorm Thunderstorm
5:26 PM 57.2 °F 50.0 °F 77% 30.06 in 10.0 mi NNW 3.5 mph - N/A Rain , Thunderstorm Light Thunderstorms and Rain
5:30 PM 57.2 °F 50.0 °F 77% 30.06 in 3.0 mi North 5.8 mph - N/A Rain , Thunderstorm Light Thunderstorms and Rain
5:31 PM 57.2 °F 51.8 °F 82% 30.06 in 2.0 mi North 5.8 mph - N/A Rain , Thunderstorm Light Thunderstorms and Rain
5:32 PM 57.2 °F 51.8 °F 82% 30.06 in 1.2 mi Variable 3.5 mph - N/A Rain , Thunderstorm Heavy Thunderstorms and Rain
5:33 PM 57.2 °F 51.8 °F 82% 30.06 in 0.8 mi Calm Calm - N/A Rain , Thunderstorm Heavy Thunderstorms and Rain
5:34 PM 55.4 °F 51.8 °F 88% 30.08 in 0.5 mi Calm Calm - N/A Rain , Thunderstorm Heavy Thunderstorms and Rain
5:35 PM 55.4 °F 51.8 °F 88% 30.08 in 0.5 mi Calm Calm - N/A Rain , Thunderstorm Heavy Thunderstorms and Rain
5:38 PM 55.4 °F 51.8 °F 88% 30.08 in 0.2 mi Calm Calm - N/A Fog , Rain , Thunderstorm Heavy Thunderstorms and Rain
5:39 PM 55.4 °F 51.8 °F 88% 30.08 in 0.2 mi North 4.6 mph - N/A Fog , Rain , Thunderstorm Heavy Thunderstorms and Rain
5:42 PM 55.4 °F 51.8 °F 88% 30.07 in 0.2 mi North 5.8 mph - N/A Fog , Rain , Thunderstorm Heavy Thunderstorms and Rain
5:43 PM 55.4 °F 51.8 °F 88% 30.07 in 0.5 mi North 6.9 mph - N/A Fog , Rain , Thunderstorm Heavy Thunderstorms and Rain
5:47 PM 55.4 °F 51.8 °F 88% 30.08 in 0.8 mi North 6.9 mph - N/A Rain , Thunderstorm Heavy Thunderstorms and Rain
5:48 PM 55.4 °F 51.8 °F 88% 30.09 in 1.0 mi NNW 8.1 mph - N/A Rain , Thunderstorm Heavy Thunderstorms and Rain
5:49 PM 55.4 °F 51.8 °F 88% 30.10 in 1.2 mi NW 9.2 mph - N/A Rain , Thunderstorm Thunderstorms and Rain
5:50 PM 55.4 °F 51.8 °F 88% 30.10 in 1.8 mi NW 9.2 mph - N/A Rain , Thunderstorm Thunderstorms and Rain
5:51 PM 55.4 °F 51.8 °F 88% 30.09 in 2.5 mi NNW 9.2 mph - N/A Rain , Thunderstorm Thunderstorms and Rain
5:52 PM 55.4 °F 51.8 °F 88% 30.07 in 3.0 mi North 9.2 mph - N/A Rain , Thunderstorm Thunderstorms and Rain
5:54 PM 53.6 °F 51.8 °F 94% 30.07 in 3.0 mi North 11.5 mph - N/A Rain , Thunderstorm Heavy Thunderstorms and Rain
5:55 PM 54.5 °F 52.7 °F 94% 30.08 in 3.0 mi North 11.5 mph - 0.54 in Rain , Thunderstorm Heavy Thunderstorms and Rain
5:56 PM 53.6 °F 51.8 °F 94% 30.09 in 2.5 mi North 9.2 mph - N/A Rain , Thunderstorm Heavy Rain
5:58 PM 53.6 °F 51.8 °F 94% 30.10 in 2.5 mi NW 8.1 mph - N/A Rain , Thunderstorm Heavy Rain
6:00 PM 53.6 °F 51.8 °F 94% 30.09 in 2.5 mi NW 6.9 mph - N/A Rain , Thunderstorm Rain
6:04 PM 53.6 °F 53.6 °F 100% 30.10 in 3.0 mi NNW 10.4 mph - N/A Rain , Thunderstorm Light Rain
6:05 PM 53.6 °F 53.6 °F 100% 30.11 in 4.0 mi NW 9.2 mph - N/A Rain , Thunderstorm Light Rain
6:06 PM 53.6 °F 53.6 °F 100% 30.10 in 5.0 mi NW 9.2 mph - N/A Rain , Thunderstorm Light Rain
6:07 PM 53.6 °F 53.6 °F 100% 30.10 in 6.0 mi NNW 6.9 mph - N/A Rain Light Rain
6:15 PM 53.6 °F 53.6 °F 100% 30.11 in 10.0 mi NNW 8.1 mph - N/A Rain Light Rain
6:17 PM 53.6 °F 53.6 °F 100% 30.10 in 10.0 mi NNW 8.1 mph - N/A Rain Light Rain
6:22 PM 53.6 °F 53.6 °F 100% 30.11 in 10.0 mi NNW 8.1 mph - N/A Rain Light Rain
6:23 PM 53.6 °F 53.6 °F 100% 30.11 in 10.0 mi NNW 6.9 mph - N/A Rain Light Rain
6:24 PM 53.6 °F 53.6 °F 100% 30.11 in 10.0 mi NNW 6.9 mph - N/A Rain Light Rain
6:29 PM 53.6 °F 53.6 °F 100% 30.10 in 10.0 mi North 4.6 mph - N/A Rain Light Rain
6:30 PM 53.6 °F 53.6 °F 100% 30.10 in 10.0 mi North 5.8 mph - N/A Rain Light Rain
6:31 PM 53.6 °F 53.6 °F 100% 30.10 in 10.0 mi North 5.8 mph - N/A Rain Light Rain
6:34 PM 53.6 °F 53.6 °F 100% 30.10 in 10.0 mi North 6.9 mph - N/A Rain Light Rain
6:46 PM 53.6 °F 53.6 °F 100% 30.11 in 10.0 mi North 5.8 mph - N/A Rain Light Rain
6:51 PM 53.6 °F 53.6 °F 100% 30.11 in 10.0 mi North 5.8 mph - N/A   Light Drizzle
6:52 PM 53.6 °F 53.6 °F 100% 30.11 in 10.0 mi North 4.6 mph - N/A   Mostly Cloudy
6:54 PM 53.6 °F 53.6 °F 100% 30.11 in 10.0 mi NNW 5.8 mph - N/A   Mostly Cloudy
6:55 PM 54.1 °F 53.1 °F 96% 30.11 in 10.0 mi NNW 5.8 mph - 0.04 in   Mostly Cloudy
6:57 PM 53.6 °F 53.6 °F 100% 30.10 in 9.0 mi North 5.8 mph - N/A Rain Light Rain
6:58 PM 53.6 °F 53.6 °F 100% 30.09 in 8.0 mi NNE 5.8 mph - N/A Rain Light Rain
7:04 PM 53.6 °F 53.6 °F 100% 30.10 in 7.0 mi NNW 3.5 mph - N/A Rain Rain
7:20 PM 53.6 °F 53.6 °F 100% 30.10 in 10.0 mi North 3.5 mph - N/A   Overcast
7:27 PM 53.6 °F 53.6 °F 100% 30.10 in 9.0 mi North 5.8 mph - N/A Rain Light Rain
7:29 PM 53.6 °F 53.6 °F 100% 30.10 in 7.0 mi North 5.8 mph - N/A Rain Light Rain
7:32 PM 53.6 °F 53.6 °F 100% 30.10 in 4.0 mi North 4.6 mph - N/A Rain Heavy Rain
7:33 PM 53.6 °F 53.6 °F 100% 30.10 in 4.0 mi North 4.6 mph - N/A Rain Heavy Rain
7:34 PM 53.6 °F 53.6 °F 100% 30.10 in 3.0 mi North 4.6 mph - N/A Rain Heavy Rain
7:36 PM 53.6 °F 53.6 °F 100% 30.11 in 2.5 mi North 3.5 mph - N/A Rain Heavy Rain
7:38 PM 53.6 °F 53.6 °F 100% 30.11 in 2.5 mi NNW 4.6 mph - N/A Rain Heavy Rain
7:39 PM 53.6 °F 53.6 °F 100% 30.11 in 3.0 mi NNW 3.5 mph - N/A Rain Rain
7:40 PM 53.6 °F 53.6 °F 100% 30.11 in 3.0 mi NNW 3.5 mph - N/A Rain Light Rain
7:42 PM 53.6 °F 53.6 °F 100% 30.11 in 4.0 mi NNW 4.6 mph - N/A Rain Light Rain
7:44 PM 53.6 °F 53.6 °F 100% 30.11 in 5.0 mi NNW 4.6 mph - N/A Rain Light Rain
7:55 PM 54.1 °F 53.2 °F 97% 30.11 in 10.0 mi North 4.6 mph - 0.13 in Rain Light Rain
8:00 PM 53.6 °F 53.6 °F 100% 30.11 in 10.0 mi NNW 6.9 mph - N/A   Overcast
8:04 PM 53.6 °F 53.6 °F 100% 30.11 in 10.0 mi North 4.6 mph - N/A Rain Light Rain
8:15 PM 53.6 °F 53.6 °F 100% 30.11 in 9.0 mi NNW 3.5 mph - N/A Rain Light Rain
8:19 PM 53.6 °F 53.6 °F 100% 30.11 in 10.0 mi NNW 3.5 mph - N/A Rain Light Rain
8:26 PM 53.6 °F 53.6 °F 100% 30.12 in 10.0 mi NNW 4.6 mph - N/A   Overcast
8:50 PM 53.6 °F 51.8 °F 94% 30.13 in 10.0 mi North 10.4 mph - N/A   Overcast
8:55 PM 53.8 °F 52.0 °F 94% 30.12 in 10.0 mi North 12.7 mph - 0.01 in   Overcast
9:17 PM 51.8 °F 50.0 °F 94% 30.12 in 10.0 mi North 9.2 mph - N/A   Overcast
9:20 PM 51.8 °F 50.0 °F 94% 30.13 in 10.0 mi North 8.1 mph - N/A   Overcast
9:55 PM 52.3 °F 50.0 °F 92% 30.12 in 10.0 mi North 6.9 mph - N/A   Overcast
10:26 PM 51.8 °F 50.0 °F 94% 30.12 in 10.0 mi North 4.6 mph - N/A   Overcast
10:55 PM 52.3 °F 48.9 °F 88% 30.13 in 10.0 mi Variable 6.9 mph - N/A   Overcast
11:38 PM 51.8 °F 50.0 °F 94% 30.13 in 10.0 mi North 6.9 mph - N/A   Overcast
11:55 PM 52.0 °F 49.1 °F 90% 30.13 in 10.0 mi North 8.1 mph - N/A   Overcast